Location: Newark
(52.3500°N, 175.9667°E)
Time: 18:22:14
(UTC+00:00)

N. Korean satellite - Pass Details

Date: 16 November 2019
Orbit: 456 x 506 km, 97.2° (Epoch: 06 December)

Event Time Altitude Azimuth Distance (km) Brightness Sun altitude
Rises 18:22:20 0° 13° (NNE) 2,626 10.3 -11.6°
Reaches altitude 10° 18:24:26 10° 13° (NNE) 1,735 9.3 -11.3°
Maximum altitude 18:28:11 89° 291° (WNW) 513 6.6 -10.8°
Drops below altitude 10° 18:31:52 10° 195° (SSW) 1,706 9.4 -10.2°
Sets 18:33:56 0° 195° (SSW) 2,579 10.3 -9.9°
